Weather History for CYYJ - June, 2013

Change the Weather History Date:

Wednesday, June 26, 2013

  Actual Average Record
Temperature  
Mean Temperature 60 °F -  
Max Temperature 68 °F 70 °F - (-1)
Min Temperature 53 °F 51 °F - (-1)
Degree Days  
Heating Degree Days 4    
Growing Degree Days 10 (Base 50)    
Moisture  
Dew Point 52 °F    
Average Humidity 72    
Maximum Humidity 88    
Minimum Humidity 57    
Precipitation  
Precipitation 0.04 in 0.02 in - ()
Sea Level Pressure  
Sea Level Pressure 29.94 in    
Wind  
Wind Speed 5 mph ()    
Max Wind Speed 10 mph    
Max Gust Speed -    
Visibility 16.2 miles    
Events Rain    
Averages and records for this station are not official NWS values.
T = Trace of Precipitation, MM = Missing Value Source: Averaged Metar Reports

Daily Weather History Graph

Daily Weather History Graph

Search for Another Location

Airport or City:

Trip Planner

Search our weather history database for the weather conditions in past years. The results will help you decide how hot, cold, wet, or windy it might be!

Date:

Astronomy

Jun. 26, 2013 Rise Set
Actual Time 5:12 AM PDT 9:20 PM PDT
Civil Twilight 4:30 AM PDT 10:02 PM PDT
Nautical Twilight 3:30 AM PDT 11:02 PM PDT
Astronomical Twilight 1:21 AM PDT 1:05 AM PDT
Moon 11:22 PM PDT (6/26) 9:32 AM PDT (6/26)
Length of Visible Light 17h 31m
Length of Day
16h 07m
Waning Gibbous, 84% of the Moon is Illuminated
Jun 26
Waning Gibbous
Jun 29
Last Quarter
Jul 8
New
Jul 15
First Quarter
Jul 22
Full

Hourly Weather History & Observations

Time (PDT) Temp. Dew Point Humidity Pressure Visibility Wind Dir Wind Speed Gust Speed Precip Events Conditions
12:00 AM 57.2 °F 50.0 °F 77% 29.81 in 30.0 mi SE 10.4 mph - N/A   Mostly Cloudy
1:00 AM 55.4 °F 50.0 °F 82% 29.82 in 20.0 mi SE 6.9 mph - N/A   Mostly Cloudy
1:29 AM 55.4 °F - N/A% - 20.0 mi SE 6.9 mph - N/A Rain Light Rain Showers
1:53 AM 55.4 °F - N/A% - 20.0 mi SE 6.9 mph - N/A   Overcast
2:00 AM 55.4 °F 48.2 °F 77% 29.84 in 20.0 mi SSE 8.1 mph - N/A   Overcast
2:31 AM 55.4 °F - N/A% - 20.0 mi ESE 5.8 mph - N/A Rain Light Rain Showers
3:00 AM 53.6 °F 48.2 °F 82% 29.85 in 20.0 mi ESE 4.6 mph - N/A Rain Light Rain Showers
4:00 AM 53.6 °F 48.2 °F 82% 29.87 in 15.0 mi NW 5.8 mph - N/A   Mostly Cloudy
5:00 AM 55 °F 51 °F 80% 29.87 in 15 mi Calm Calm - - Rain Light Rain
5:00 AM 55.4 °F 50.0 °F 82% 29.87 in 15.0 mi Calm Calm - N/A Rain Light Rain
5:51 AM 55.4 °F - N/A% - 15.0 mi NE 4.6 mph - N/A   Mostly Cloudy
6:00 AM 55.4 °F 50.0 °F 82% 29.87 in 15.0 mi ENE 3.5 mph - N/A   Mostly Cloudy
6:34 AM 55.4 °F - N/A% - 15.0 mi NE 3.5 mph - N/A Rain Light Rain
6:44 AM 57.2 °F - N/A% - 15.0 mi Calm Calm - N/A Rain Light Rain
7:00 AM 55.4 °F 51.8 °F 88% 29.88 in 15.0 mi Calm Calm - N/A Rain Light Rain
7:30 AM 57.2 °F - N/A% - 15.0 mi NNE 3.5 mph - N/A   Overcast
8:00 AM 57.2 °F 50.0 °F 77% 29.88 in 15.0 mi ENE 2.3 mph - N/A   Overcast
9:00 AM 57.2 °F 50.0 °F 77% 29.90 in 15.0 mi ESE 3.5 mph - N/A   Overcast
10:00 AM 60.8 °F 51.8 °F 72% 29.90 in 15.0 mi East 8.1 mph - N/A   Mostly Cloudy
11:00 AM 60 °F 52 °F 66% 29.93 in 15 mi ESE 6.9 mph - -   Partly Cloudy
11:00 AM 59.0 °F 51.8 °F 77% 29.93 in 15.0 mi SE 5.8 mph - N/A   Overcast
11:09 AM 60.8 °F - N/A% - 15.0 mi ESE 5.8 mph - N/A Rain Light Rain
12:00 PM 62.6 °F 53.6 °F 72% 29.94 in 15.0 mi East 4.6 mph - N/A   Mostly Cloudy
1:00 PM 64.4 °F 53.6 °F 68% 29.95 in 15.0 mi NE 6.9 mph - N/A   Mostly Cloudy
2:00 PM 62.6 °F 51.8 °F 68% 29.97 in 30.0 mi SSE 9.2 mph - N/A Rain Light Rain Showers
2:28 PM 64.4 °F - N/A% - 15.0 mi SSE 5.8 mph - N/A   Mostly Cloudy
3:00 PM 64.4 °F 53.6 °F 68% 29.99 in 15.0 mi NNE 2.3 mph - N/A Rain Light Rain Showers
3:20 PM 66.2 °F - N/A% - 30.0 mi NNW 2.3 mph - N/A   Mostly Cloudy
3:50 PM 66.2 °F - N/A% - 30.0 mi WNW 2.3 mph - N/A Rain Light Rain Showers
4:00 PM 66.2 °F 53.6 °F 64% 30.00 in 30.0 mi NW 3.5 mph - N/A Rain Light Rain Showers
4:32 PM 66.2 °F - N/A% - 30.0 mi West 3.5 mph - N/A   Mostly Cloudy
4:44 PM 66.2 °F - N/A% - 30.0 mi WNW 4.6 mph - N/A Rain Light Rain Showers
5:00 PM 66 °F 54 °F 57% 30.01 in 28 mi WNW 5.8 mph - - Rain Light Rain Showers
5:00 PM 66.2 °F 53.6 °F 64% 30.01 in 30.0 mi West 5.8 mph - N/A Rain Light Rain Showers
5:44 PM 66.2 °F - N/A% - 30.0 mi WNW 4.6 mph - N/A   Mostly Cloudy
6:00 PM 66.2 °F 51.8 °F 60% 30.01 in 30.0 mi WNW 4.6 mph - N/A   Mostly Cloudy
7:00 PM 68.0 °F 53.6 °F 60% 30.03 in 30.0 mi WNW 2.3 mph - N/A   Mostly Cloudy
8:00 PM 66.2 °F 51.8 °F 60% 30.03 in 30.0 mi East 3.5 mph - N/A   Mostly Cloudy
9:00 PM 64.4 °F 53.6 °F 68% 30.05 in 30.0 mi SSE 4.6 mph - N/A   Mostly Cloudy
10:00 PM 60.8 °F 51.8 °F 72% 30.06 in 30.0 mi ESE 2.3 mph - N/A   Mostly Cloudy
11:00 PM 61 °F 53 °F 67% 30.07 in 28 mi NE 2.3 mph - -   Partly Cloudy
11:00 PM 60.8 °F 53.6 °F 77% 30.07 in 30.0 mi ENE 3.5 mph - N/A   Mostly Cloudy